Weather Roundup
Issued by NWS

Home | Current Version | Previous Version | Text Only | Print | Product List | Glossary On
Versions: 1 2 3 4 5 6 7 8 9 10 11 12 13 14 15 16 17 18 19 20 21 22 23 24 25 26 27 28 29 30 31 32 33 34 35 36 37 38 39 40 41 42 43 44 45 46 47 48 49 50
000
NZUS93 KARX 292059
HRRWXR

CURRENT HOURLY OBSERVATIONS ACROSS
MUCH OF THE UPPER MISSISSIPPI VALLEY
NATIONAL WEATHER SERVICE LA CROSSE WI
400 PM CDT WED MAR 29 2017


...SOUTHEAST MINNESOTA...


CITY           SKY/WX    TMP DP  RH WIND       PRES   REMARKS
ROCHESTER      CLOUDY    42  39  89 NE16G25   30.15F
ROCHESTER/MAYO CLOUDY    42  38  86 NE10G20   30.15F
WINONA         RAIN      43  39  87 E7        30.20F
AUSTIN         DRIZZLE   45  37  76 E12       30.14R
ALBERT LEA     RAIN      43  36  75 E23G32    30.12F
DODGE CENTER   LGT RAIN  43  39  87 E20G25    30.16F
PRESTON        CLOUDY    43  34  72 E13G20    30.14F
OWATONNA       LGT RAIN  43  39  87 E16       30.16S
FARIBAULT      LGT RAIN  45  39  81 E14G24    30.17S
$$

...ELSEWHERE IN MINNESOTA...


CITY           SKY/WX    TMP DP  RH WIND       PRES   REMARKS
MINNEAPOLIS    CLOUDY    49  35  58 SE16      30.18F
INTNL FALLS    CLOUDY    53  30  41 SE14      30.15F
DULUTH         CLOUDY    38  31  76 E12       30.23F WCI  30
RED WING       CLOUDY    48  34  57 SE13      30.18F
REDWOOD FALLS  CLOUDY    49  36  61 SE20G28   30.13F
MANKATO        LGT RAIN  44  40  85 E18       30.14F
WORTHINGTON    LGT RAIN  41  38  89 E23G30    30.07F
FAIRMONT       LGT RAIN  43  39  86 E18G28    30.10F
$$

...SOUTHWEST WISCONSIN...


CITY           SKY/WX    TMP DP  RH WIND       PRES   REMARKS
LA CROSSE      CLOUDY    47  37  68 CALM      30.18F
PRAIRIE DU CHI DRIZZLE   46  34  62 E13G18    30.12F
BOSCOBEL       CLOUDY    48  36  63 E8        30.14F
LONE ROCK      NOT AVBL
PLATTEVILLE    CLOUDY    46  37  71 NE18G24   30.08F
FORT MC COY    CLOUDY    42  39  89 NE12      30.20F
MAUSTON-NEW LI CLOUDY    45  37  75 E8        30.20F
VIROQUA        MOCLDY    44  36  73 E12G18    30.16F
WIS DELLS      CLOUDY    45  37  75 NE12      30.18F
$$

...ELSEWHERE IN WISCONSIN...


CITY           SKY/WX    TMP DP  RH WIND       PRES   REMARKS
MILWAUKEE      CLOUDY    40  35  83 NE15      30.22F WCI  32
MADISON        CLOUDY    47  31  53 E16       30.17F
GREEN BAY      CLOUDY    40  34  79 NE10      30.30F WCI  33
EAU CLAIRE     NOT AVBL
BLACK RVR FLS  RAIN      42  42  99 CALM      30.22F
MEDFORD        CLOUDY    45  32  59 E10       30.22F
WAUSAU         CLOUDY    46  29  51 SE9       30.22F
WIS RAPIDS     CLOUDY    46  33  60 E12       30.24F
MARSHFIELD     CLOUDY    45  31  58 E12       30.21F
RICE LAKE      CLOUDY    49  32  51 SE7       30.22F
$$

...NORTHEAST IOWA...


CITY           SKY/WX    TMP DP  RH WIND       PRES   REMARKS
WATERLOO       LGT RAIN  44  38  79 NE25G32   30.04F
DUBUQUE        CLOUDY    46  34  62 E16G26    30.07F
DECORAH        DRIZZLE   43  36  75 E12G24    30.13R
MASON CITY     LGT RAIN  42  38  85 E23G30    30.10F
CHARLES CITY   LGT RAIN  41  41 100 E14G21    30.13R
OELWEIN        LGT RAIN  43  41  93 NE22      30.07S
$$

...ELSEWHERE IN IOWA...


CITY           SKY/WX    TMP DP  RH WIND       PRES   REMARKS
DES MOINES     LGT RAIN  46  43  89 E20G28    29.89S FOG
IOWA CITY      LGT RAIN  46  42  86 E14G28    29.98F FOG
FORT DODGE     CLOUDY    39  36  87 NE26G32   29.99F WCI  28
MARSHALLTOWN   RAIN      42  39  89 NE29G36   29.94F FOG
CEDAR RAPIDS   RAIN      44  42  93 E21G29    29.98F FOG
$$

...NORTHERN ILLINOIS...


CITY           SKY/WX    TMP DP  RH WIND       PRES   REMARKS
CHICAGO-OHARE  CLOUDY    47  34  60 NE16      30.15F
CHICAGO-MIDWAY LGT RAIN  49  35  58 NE20G25   30.15F
MOLINE         CLOUDY    48  42  80 E23       29.97F
ROCKFORD       CLOUDY    49  34  56 E20G28    30.11F
PEORIA         CLOUDY    51  42  71 E16G31    29.96F
$$

NOTE: "FAIR" INDICATES FEW OR NO CLOUDS BELOW 12,000 FEET WITH NO
SIGNIFICANT WEATHER AND/OR OBSTRUCTIONS TO VISIBILITY. WIND
SPEEDS ARE IN MILES-PER-HOUR.




USA.gov is the U.S. government's official web portal to all federal, state and local government web resources and services.